Overview Statistics Trail Chart Weather Telemetry Raw packets
 

This is the latest recevied weather packets stored in our database for station/object KI5UTS-13. If no packets are shown the sender has not sent any weather packets the latest 10 day(s).

<< 4 5 6 7 8 9 10 >>
Time Temp. Humidity Pressure Rain* Wind** Luminosity Snow
1788535448 23.89° C 99% 1017.7 hPa 1.27 mm - 30 W/m² -
1788535147 23.89° C 99% 1017.6 hPa 1.78 mm - 36 W/m² -
1788534843 23.89° C 99% 1017.7 hPa 1.78 mm - 37 W/m² -
1788534538 23.89° C 99% 1017.6 hPa 1.27 mm - 32 W/m² -
1788534233 23.89° C 99% 1017.7 hPa 3.05 mm - 29 W/m² -
1788533930 23.89° C 99% 1017.9 hPa 3.05 mm - 26 W/m² -
1788533627 23.89° C 99% 1018 hPa 3.05 mm - 24 W/m² -
1788533323 23.89° C 99% 1017.6 hPa 3.05 mm - 24 W/m² -
1788533018 23.89° C 99% 1017.8 hPa 3.05 mm - 23 W/m² -
1788532713 23.89° C 99% 1017.5 hPa 4.83 mm - 24 W/m² -
1788532410 23.89° C 99% 1017.5 hPa 4.83 mm - 23 W/m² -
1788532106 23.89° C 99% 1017.5 hPa 3.05 mm - 22 W/m² -
1788531801 23.89° C 99% 1017.7 hPa 4.32 mm - 20 W/m² -
1788531496 23.89° C 99% 1017.4 hPa 4.83 mm - 21 W/m² -
1788531191 23.89° C 99% 1017.1 hPa 3.05 mm - 20 W/m² -
1788530887 23.89° C 99% 1017.3 hPa 3.05 mm - 18 W/m² -
1788530577 23.89° C 99% 1017.1 hPa 4.83 mm - 16 W/m² -
1788530276 23.89° C 99% 1017.1 hPa 6.1 mm - 15 W/m² -
1788529971 23.89° C 99% 1017.2 hPa 4.32 mm - 13 W/m² -
1788529667 23.89° C 99% 1017.1 hPa 4.83 mm - 12 W/m² -
1788529366 23.89° C 99% 1017.1 hPa 6.6 mm - 12 W/m² -
1788529061 23.89° C 99% 1017 hPa 4.32 mm - 9 W/m² -
1788528757 23.89° C 99% 1017.2 hPa 3.05 mm - 6 W/m² -
1788528456 23.89° C 99% 1017.2 hPa 4.83 mm - 6 W/m² -
1788528152 23.89° C 99% 1017 hPa 3.05 mm - 10 W/m² -

* Rain latest hour (hover to see other rain measurements)
** Current wind speed in m/s (hover to see current wind gust speed)